Lid_Strength_Index
11 13 13 12 11 11 10 11 11 10 9 10 9 9 8 6 6 6 6 6 5 4 3 4 3 2 1 1 1 1 1 0 1 1 1 1 1 1 0 -0 -1 -1 -1 -1
12 13 10 10 10 11 12 12 12 10 9 9 9 10 8 6 6 6 6 6 5 4 3 4 3 2 2 2 1 1 1 1 0 1 0 -0 0 0 -0 -0 -1 -1 -1 -1
12 11 9 11 11 12 12 13 13 12 10 9 10 11 9 7 6 6 6 5 4 4 4 4 3 3 2 2 2 1 1 1 0 0 0 0 -0 0 0 0 -0 -1 -1 -1
11 9 10 12 12 11 13 11 11 12 12 13 10 14 10 8 8 7 6 5 4 4 4 4 4 3 3 2 1 1 1 1 0 -0 1 1 1 2 1 0 -0 -0 -1 -0
13 12 11 12 12 10 12 10 11 11 12 12 12 13 11 8 9 8 7 5 4 4 4 4 4 3 2 2 2 1 1 1 0 0 0 1 1 1 0 0 1 0 -1 -0
10 9 10 10 10 9 9 10 11 11 11 15 12 12 13 10 9 8 7 5 5 5 4 4 3 3 2 2 1 1 1 1 1 0 0 1 1 1 1 1 1 0 0 0
11 12 10 10 11 9 10 12 15 16 16 16 12 13 12 8 7 7 6 5 5 5 4 4 4 3 3 2 2 2 1 2 1 1 1 1 1 1 1 1 1 1 1 1
13 15 11 10 11 11 11 11 14 18 17 15 12 15 13 7 5 6 5 4 5 5 4 4 4 3 3 2 2 2 2 2 1 1 1 1 1 0 0 0 0 0 0 1
12 13 9 10 9 9 12 13 10 13 13 14 13 12 8 7 7 6 6 5 6 5 5 4 3 3 3 2 2 2 2 2 1 1 1 1 0 0 1 0 -0 -0 0 0
10 13 10 10 9 8 11 9 14 13 17 18 14 13 12 9 8 6 6 6 6 5 5 4 4 3 3 2 2 1 1 1 1 1 1 1 0 0 0 -0 0 0 0 -0
9 11 11 10 12 12 12 13 12 11 13 16 16 13 8 8 7 7 6 6 6 5 5 4 3 3 2 2 2 2 2 1 1 1 1 1 0 0 0 0 -0 -0 0 -0
10 11 13 12 9 8 10 11 12 14 15 13 13 13 7 7 6 6 6 6 5 5 4 4 3 3 3 2 2 2 2 2 1 1 1 1 1 1 1 0 0 -0 0 0
10 12 13 13 11 9 11 11 11 11 11 13 14 12 7 6 6 6 6 6 6 5 4 4 3 3 3 3 2 2 2 1 1 1 1 1 1 1 1 1 0 0 0 0
9 12 13 14 13 10 12 11 10 11 13 13 13 11 8 7 7 6 6 6 5 5 5 4 4 3 3 2 2 2 2 1 1 1 1 1 1 1 1 0 0 0 0 1
10 14 13 13 12 12 11 11 11 12 11 13 12 10 9 8 6 6 6 6 6 5 5 4 4 4 3 3 2 2 2 1 1 1 1 1 1 1 0 1 0 0 0 0
10 13 13 13 12 11 12 10 10 10 10 10 10 9 7 6 6 6 6 6 6 5 5 4 4 3 3 3 2 2 2 2 1 1 2 1 1 1 1 1 1 1 1 1
11 12 13 14 13 12 13 11 10 10 9 10 11 9 7 7 6 6 6 6 5 5 5 4 4 3 3 2 2 2 2 1 1 1 1 1 1 1 1 1 1 1 1 1
11 12 12 14 12 16 10 8 8 9 9 8 8 8 7 7 6 4 4 5 5 5 4 4 3 3 2 2 2 1 1 2 2 2 1 1 1 1 1 1 1 1 1 1
9 11 13 15 15 12 11 10 11 9 9 8 8 8 7 6 5 5 4 4 4 4 3 3 3 2 2 2 2 2 2 2 2 2 2 1 1 1 1 1 1 1 1 1
9 10 12 13 16 16 13 9 7 8 12 8 8 8 8 7 9 7 3 3 3 3 3 3 2 2 2 2 1 2 2 2 2 2 1 1 1 1 1 1 1 1 1 1
13 13 15 14 15 13 9 8 7 13 12 8 8 8 7 8 5 5 4 3 3 3 3 2 2 3 2 2 2 2 2 2 1 1 1 1 1 1 1 1 1 1 1 1
14 14 14 14 15 17 8 8 11 9 8 8 7 7 7 6 6 5 4 4 3 3 3 3 3 3 2 2 2 2 2 1 1 1 1 1 1 1 1 1 1 1 1 1
14 12 14 12 11 8 8 8 6 7 8 7 7 7 6 6 5 5 5 4 3 3 3 2 3 3 2 2 2 2 2 1 1 1 1 1 1 1 1 1 1 1 1 2
10 9 11 11 9 9 8 7 7 7 7 6 7 7 6 6 5 5 5 4 3 3 3 3 3 3 3 2 2 2 1 1 1 2 1 1 1 1 1 1 1 1 2 2
10 9 11 11 9 9 8 8 8 7 6 7 7 7 6 5 5 5 5 4 3 3 3 2 3 3 3 2 2 1 1 1 2 2 2 1 1 1 1 1 1 1 0 1
8 9 11 11 9 9 10 8 7 7 7 7 7 7 5 4 5 4 4 3 3 3 3 3 2 2 2 2 2 1 1 1 1 2 2 2 1 1 1 1 2 10 6 7